Regional Weather Roundup
Issued by NWS Newport/Morehead, NC

Current Version | Previous Version | Text Only | Print | Product List | Glossary Off
Versions: 1 2 3 4 5 6 7 8 9 10 11 12 13 14 15 16 17 18 19 20 21 22 23 24 25 26 27 28 29 30 31 32 33 34 35 36 37 38 39 40 41 42 43 44 45 46 47 48 49 50
000 ASUS42 KMHX 200322 RWRMHX WEATHER ROUNDUP FOR EASTERN NORTH CAROLINA NATIONAL WEATHER SERVICE NEWPORT/MOREHEAD CITY NC 1000 PM EST FRI JAN 19 2018 NOTE: "FAIR" INDICATES FEW OR NO CLOUDS BELOW 12,000 FEET WITH NO SIGNIFICANT WEATHER AND/OR OBSTRUCTIONS TO VISIBILITY NCZ015>017-031-032-045>047-102-103-200400- NORTH COAST CITY SKY/WX TMP DP RH WIND PRES REMARKS EDENTON FAIR 44 24 43 SW5 30.16S ELIZABETH CITY FAIR 39 27 62 SW7 30.15R KITTY HAWK FAIR 37 26 63 CALM 30.14R MANTEO FAIR 36 30 78 SW5 30.16R $$ NCZ045>047-081-094-103-104-200400- CENTRAL COAST CITY SKY/WX TMP DP RH WIND PRES REMARKS FRISCO FAIR 44 40 85 W7 30.18R $$ NCZ095-097-098-100-101-200400- SOUTHERN COAST CITY SKY/WX TMP DP RH WIND PRES REMARKS BEAUFORT FAIR 46 36 68 W8 30.20R CEDAR ISLAND NOT AVBL JACKSONVILLE FAIR 44 28 53 SW7 30.19S PINEY ISLAND NOT AVBL WILMINGTON FAIR 40 34 79 SW6 30.21S $$ NCZ011>013-027>030-043-044-078>080-089-090>093-098-200400- COASTAL PLAIN CITY SKY/WX TMP DP RH WIND PRES REMARKS AHOSKIE FAIR 31 21 66 CALM 30.15S CLINTON FAIR 33 28 80 CALM 30.20S ELIZABETHTOWN NOT AVBL GOLDSBORO FAIR 36 25 63 CALM 30.17R GREENVILLE FAIR 32 27 80 CALM 30.19R HAVELOCK NOT AVBL KENANSVILLE FAIR 30 25 80 CALM 30.19S KINSTON FAIR 32 26 80 CALM 30.19R NEW BERN FAIR 39 30 70 SW5 30.20R RICHLANDS FAIR 36 28 73 SW3 30.20R ROCKY MOUNT NOT AVBL WASHINGTON FAIR 35 25 66 CALM 30.18R WHITEVILLE FAIR 36 29 78 CALM 30.20S $$ AMZ130-135-150-152-154-156-158-170-250-252-270-ANZ085-086-088-633-658-670-200400- MARINE OBSERVATIONS STATION/POSITION TIME TEMP WIND PRES WAVE SWELL AIR SEA DIR/SP/G HT/PER HT/PER (UTC) (F) (DEG/KT/KT) (MB) (FT/S) (FT/S) CHESAPEAKE LIGHT NOT AVBL 64 E VA BEACH NOT AVBL DUCK NOT AVBL 2 E DUCK NOT AVBL OREGON INLET NOT AVBL 13E OREGON INLT NOT AVBL HATTERAS CG NOT AVBL DIAMOND BUOY NOT AVBL CAPE LOOKOUT NOT AVBL BEAUFORT LAB NOT AVBL 30 SE NEW RVR IN NOT AVBL 30 SE NEW RVR IN NOT AVBL 27 SE WRIGHTSVLE NOT AVBL 5 SE WRIGHTSVLE NOT AVBL 225 S CAPE HAT NOT AVBL 41 SE CHARLESTON NOT AVBL $$

USA.gov is the U.S. government's official web portal to all federal, state and local government web resources and services.